Time,TemperatureF,DewpointF,PressureIn,WindDirection,WindDirectionDegrees,WindSpeedMPH,WindSpeedGustMPH,Humidity,HourlyPrecipIn,Conditions,Clouds,dailyrainin,SoftwareType,DateUTC
2013-03-27 00:00:00,28.0,24.6,30.22,West,259,2.0,21.0,87,0.00,,,0.00,Wunderground v.1.15,2013-03-27 04:00:00,
2013-03-27 00:05:00,28.0,24.9,30.22,SSW,192,1.0,21.0,88,0.00,,,0.00,Wunderground v.1.15,2013-03-27 04:05:00,
2013-03-27 00:10:00,28.0,24.6,30.21,WSW,248,1.0,21.0,87,0.00,,,0.00,Wunderground v.1.15,2013-03-27 04:10:00,
2013-03-27 00:15:00,28.0,24.6,30.21,SW,233,2.0,21.0,87,0.00,,,0.00,Wunderground v.1.15,2013-03-27 04:15:00,
2013-03-27 00:20:00,28.0,24.6,30.22,WSW,256,2.0,21.0,87,0.00,,,0.00,Wunderground v.1.15,2013-03-27 04:20:00,
2013-03-27 00:25:00,28.0,24.6,30.21,SSW,207,2.0,21.0,87,0.00,,,0.00,Wunderground v.1.15,2013-03-27 04:25:00,
2013-03-27 00:30:00,28.0,24.6,30.22,West,262,3.0,21.0,87,0.00,,,0.00,Wunderground v.1.15,2013-03-27 04:30:00,
2013-03-27 00:35:00,28.0,24.9,30.21,WSW,247,3.0,21.0,88,0.00,,,0.00,Wunderground v.1.15,2013-03-27 04:35:00,
2013-03-27 00:40:00,28.0,24.9,30.22,SW,236,3.0,21.0,88,0.00,,,0.00,Wunderground v.1.15,2013-03-27 04:40:00,
2013-03-27 00:45:00,28.0,24.9,30.21,WSW,245,3.0,21.0,88,0.00,,,0.00,Wunderground v.1.15,2013-03-27 04:45:00,
2013-03-27 00:50:00,28.0,24.9,30.21,West,264,4.0,21.0,88,0.00,,,0.00,Wunderground v.1.15,2013-03-27 04:50:00,
2013-03-27 00:55:00,27.9,25.1,30.21,West,264,4.0,21.0,89,0.00,,,0.00,Wunderground v.1.15,2013-03-27 04:55:00,
2013-03-27 01:00:00,27.9,25.1,30.21,WSW,247,4.0,21.0,89,0.00,,,0.00,Wunderground v.1.15,2013-03-27 05:00:00,
2013-03-27 01:10:00,27.9,25.1,30.21,WSW,250,4.0,21.0,89,0.00,,,0.00,Wunderground v.1.15,2013-03-27 05:10:00,
2013-03-27 01:15:00,27.7,25.2,30.21,SW,236,4.0,21.0,90,0.00,,,0.00,Wunderground v.1.15,2013-03-27 05:15:00,
2013-03-27 01:20:00,27.7,25.2,30.21,WSW,255,4.0,4.0,90,0.00,,,0.00,Wunderground v.1.15,2013-03-27 05:20:00,
2013-03-27 01:25:00,27.7,25.2,30.21,WSW,243,4.0,21.0,90,0.00,,,0.00,Wunderground v.1.15,2013-03-27 05:25:00,
2013-03-27 01:30:00,27.6,24.8,30.21,WNW,290,4.0,4.0,89,0.00,,,0.00,Wunderground v.1.15,2013-03-27 05:30:00,
2013-03-27 01:40:00,27.6,24.5,30.21,WNW,283,4.0,21.0,88,0.00,,,0.00,Wunderground v.1.15,2013-03-27 05:40:00,
2013-03-27 01:45:00,27.6,24.5,30.21,WSW,243,4.0,21.0,88,0.00,,,0.00,Wunderground v.1.15,2013-03-27 05:45:00,
2013-03-27 01:50:00,27.6,24.5,30.21,WSW,248,3.0,3.0,88,0.00,,,0.00,Wunderground v.1.15,2013-03-27 05:50:00,
2013-03-27 01:55:00,27.5,24.4,30.21,WSW,243,3.0,4.0,88,0.00,,,0.00,Wunderground v.1.15,2013-03-27 05:55:00,
2013-03-27 02:00:00,27.6,24.8,30.21,SW,233,4.0,21.0,89,0.00,,,0.00,Wunderground v.1.15,2013-03-27 06:00:00,
2013-03-27 02:05:00,27.6,24.8,30.21,WSW,247,4.0,21.0,89,0.00,,,0.00,Wunderground v.1.15,2013-03-27 06:05:00,
2013-03-27 02:10:00,27.6,24.5,30.21,WSW,254,4.0,4.0,88,0.00,,,0.00,Wunderground v.1.15,2013-03-27 06:10:00,
2013-03-27 02:15:00,27.6,24.8,30.21,WSW,248,3.0,21.0,89,0.00,,,0.00,Wunderground v.1.15,2013-03-27 06:15:00,
2013-03-27 02:20:00,27.6,24.8,30.21,WSW,240,3.0,21.0,89,0.00,,,0.00,Wunderground v.1.15,2013-03-27 06:20:00,
2013-03-27 02:25:00,27.6,24.8,30.21,WSW,250,3.0,21.0,89,0.00,,,0.00,Wunderground v.1.15,2013-03-27 06:25:00,
2013-03-27 02:30:00,27.5,24.7,30.20,WSW,247,3.0,3.0,89,0.00,,,0.00,Wunderground v.1.15,2013-03-27 06:30:00,
2013-03-27 02:40:00,27.5,25.0,30.21,WSW,257,4.0,21.0,90,0.00,,,0.00,Wunderground v.1.15,2013-03-27 06:40:00,
2013-03-27 02:45:00,27.5,25.0,30.21,WSW,245,4.0,21.0,90,0.00,,,0.00,Wunderground v.1.15,2013-03-27 06:45:00,
2013-03-27 02:50:00,27.5,25.0,30.21,WSW,256,4.0,4.0,90,0.00,,,0.00,Wunderground v.1.15,2013-03-27 06:50:00,
2013-03-27 02:55:00,27.4,24.9,30.21,WSW,243,4.0,21.0,90,0.00,,,0.00,Wunderground v.1.15,2013-03-27 06:55:00,
2013-03-27 03:00:00,27.3,24.8,30.21,WSW,248,3.0,21.0,90,0.00,,,0.00,Wunderground v.1.15,2013-03-27 07:00:00,
2013-03-27 03:05:00,27.3,25.0,30.20,WSW,242,4.0,21.0,91,0.00,,,0.00,Wunderground v.1.15,2013-03-27 07:05:00,
2013-03-27 03:15:00,27.1,24.8,30.21,SW,236,4.0,21.0,91,0.00,,,0.00,Wunderground v.1.15,2013-03-27 07:15:00,
2013-03-27 03:20:00,27.1,24.8,30.21,WSW,246,3.0,21.0,91,0.00,,,0.00,Wunderground v.1.15,2013-03-27 07:20:00,
2013-03-27 03:25:00,27.1,24.8,30.21,WSW,246,3.0,21.0,91,0.00,,,0.00,Wunderground v.1.15,2013-03-27 07:25:00,
2013-03-27 03:30:00,27.0,24.7,30.21,SW,217,3.0,3.0,91,0.00,,,0.00,Wunderground v.1.15,2013-03-27 07:30:00,
2013-03-27 03:35:00,27.0,24.7,30.21,WSW,242,3.0,21.0,91,0.00,,,0.00,Wunderground v.1.15,2013-03-27 07:35:00,
2013-03-27 03:40:00,27.0,24.5,30.21,WNW,290,3.0,21.0,90,0.00,,,0.00,Wunderground v.1.15,2013-03-27 07:40:00,
2013-03-27 03:45:00,27.1,24.6,30.21,WSW,237,3.0,21.0,90,0.00,,,0.00,Wunderground v.1.15,2013-03-27 07:45:00,
2013-03-27 03:50:00,27.1,24.6,30.21,WSW,253,3.0,21.0,90,0.00,,,0.00,Wunderground v.1.15,2013-03-27 07:50:00,
2013-03-27 03:55:00,27.0,24.5,30.21,West,266,3.0,21.0,90,0.00,,,0.00,Wunderground v.1.15,2013-03-27 07:55:00,
2013-03-27 04:00:00,26.9,24.4,30.21,SW,225,3.0,21.0,90,0.00,,,0.00,Wunderground v.1.15,2013-03-27 08:00:00,
2013-03-27 04:05:00,26.8,24.3,30.20,SW,233,3.0,21.0,90,0.00,,,0.00,Wunderground v.1.15,2013-03-27 08:05:00,
2013-03-27 04:10:00,26.8,24.0,30.20,SSW,208,3.0,3.0,89,0.00,,,0.00,Wunderground v.1.15,2013-03-27 08:10:00,
2013-03-27 04:15:00,26.8,24.0,30.20,West,263,2.0,21.0,89,0.00,,,0.00,Wunderground v.1.15,2013-03-27 08:15:00,
2013-03-27 04:20:00,26.7,23.6,30.20,WSW,249,2.0,21.0,88,0.00,,,0.00,Wunderground v.1.15,2013-03-27 08:20:00,
2013-03-27 04:25:00,26.7,23.4,30.20,WSW,258,3.0,21.0,87,0.00,,,0.00,Wunderground v.1.15,2013-03-27 08:25:00,
2013-03-27 04:30:00,26.7,23.6,30.20,WSW,243,3.0,21.0,88,0.00,,,0.00,Wunderground v.1.15,2013-03-27 08:30:00,
2013-03-27 04:35:00,26.7,23.4,30.20,SW,225,4.0,21.0,87,0.00,,,0.00,Wunderground v.1.15,2013-03-27 08:35:00,
2013-03-27 04:40:00,26.7,23.4,30.20,WSW,256,3.0,21.0,87,0.00,,,0.00,Wunderground v.1.15,2013-03-27 08:40:00,
2013-03-27 04:50:00,26.6,23.0,30.22,WSW,250,3.0,21.0,86,0.00,,,0.00,Wunderground v.1.15,2013-03-27 08:50:00,
2013-03-27 04:55:00,26.6,23.0,30.21,WSW,250,4.0,21.0,86,0.00,,,0.00,Wunderground v.1.15,2013-03-27 08:55:00,
2013-03-27 05:00:00,26.6,23.3,30.21,West,260,4.0,21.0,87,0.00,,,0.00,Wunderground v.1.15,2013-03-27 09:00:00,
2013-03-27 05:05:00,26.6,23.0,30.21,WSW,256,3.0,21.0,86,0.00,,,0.00,Wunderground v.1.15,2013-03-27 09:05:00,
2013-03-27 05:10:00,26.5,22.9,30.21,WNW,283,3.0,3.0,86,0.00,,,0.00,Wunderground v.1.15,2013-03-27 09:10:00,
2013-03-27 05:15:00,26.5,22.9,30.21,SW,235,4.0,5.0,86,0.00,,,0.00,Wunderground v.1.15,2013-03-27 09:15:00,
2013-03-27 05:20:00,26.5,22.9,30.20,West,269,4.0,4.0,86,0.00,,,0.00,Wunderground v.1.15,2013-03-27 09:20:00,
2013-03-27 05:25:00,26.5,22.9,30.20,WSW,240,3.0,21.0,86,0.00,,,0.00,Wunderground v.1.15,2013-03-27 09:25:00,
2013-03-27 05:30:00,26.5,22.9,30.20,WSW,242,3.0,21.0,86,0.00,,,0.00,Wunderground v.1.15,2013-03-27 09:30:00,
2013-03-27 05:35:00,26.6,23.0,30.21,West,262,4.0,21.0,86,0.00,,,0.00,Wunderground v.1.15,2013-03-27 09:35:00,
2013-03-27 05:45:00,26.5,22.6,30.21,WSW,240,3.0,21.0,85,0.00,,,0.00,Wunderground v.1.15,2013-03-27 09:45:00,
2013-03-27 05:50:00,26.5,22.6,30.22,WSW,250,3.0,21.0,85,0.00,,,0.00,Wunderground v.1.15,2013-03-27 09:50:00,
2013-03-27 05:55:00,26.5,22.6,30.22,West,269,3.0,21.0,85,0.00,,,0.00,Wunderground v.1.15,2013-03-27 09:55:00,
2013-03-27 06:00:00,26.5,22.6,30.22,WSW,252,3.0,3.0,85,0.00,,,0.00,Wunderground v.1.15,2013-03-27 10:00:00,
2013-03-27 06:10:00,26.5,22.6,30.22,West,262,4.0,4.0,85,0.00,,,0.00,Wunderground v.1.15,2013-03-27 10:10:00,
2013-03-27 06:15:00,26.4,22.5,30.23,SW,233,3.0,21.0,85,0.00,,,0.00,Wunderground v.1.15,2013-03-27 10:15:00,
2013-03-27 06:25:00,26.5,22.6,30.23,West,274,4.0,21.0,85,0.00,,,0.00,Wunderground v.1.15,2013-03-27 10:25:00,
2013-03-27 06:30:00,26.5,22.9,30.23,West,260,4.0,4.0,86,0.00,,,0.00,Wunderground v.1.15,2013-03-27 10:30:00,
2013-03-27 06:35:00,26.5,22.9,30.23,West,279,4.0,21.0,86,0.00,,,0.00,Wunderground v.1.15,2013-03-27 10:35:00,
2013-03-27 06:45:00,26.5,23.2,30.23,WSW,243,3.0,21.0,87,0.00,,,0.00,Wunderground v.1.15,2013-03-27 10:45:00,
2013-03-27 06:50:00,26.5,23.2,30.24,WSW,248,3.0,21.0,87,0.00,,,0.00,Wunderground v.1.15,2013-03-27 10:50:00,
2013-03-27 06:55:00,26.6,23.3,30.24,WSW,243,3.0,21.0,87,0.00,,,0.00,Wunderground v.1.15,2013-03-27 10:55:00,
2013-03-27 07:05:00,26.6,23.5,30.24,SW,236,3.0,21.0,88,0.00,,,0.00,Wunderground v.1.15,2013-03-27 11:05:00,
2013-03-27 07:15:00,26.5,23.2,30.25,WSW,245,3.0,21.0,87,0.00,,,0.00,Wunderground v.1.15,2013-03-27 11:15:00,
2013-03-27 07:20:00,26.5,23.2,30.25,SW,217,3.0,3.0,87,0.00,,,0.00,Wunderground v.1.15,2013-03-27 11:20:00,
2013-03-27 07:30:00,26.6,23.5,30.25,WSW,246,3.0,21.0,88,0.00,,,0.00,Wunderground v.1.15,2013-03-27 11:30:00,
2013-03-27 07:35:00,26.6,23.5,30.25,WSW,248,2.0,21.0,88,0.00,,,0.00,Wunderground v.1.15,2013-03-27 11:35:00,
2013-03-27 07:40:00,26.6,23.8,30.25,WSW,239,2.0,21.0,89,0.00,,,0.00,Wunderground v.1.15,2013-03-27 11:40:00,
2013-03-27 07:45:00,26.6,23.8,30.25,WSW,240,2.0,21.0,89,0.00,,,0.00,Wunderground v.1.15,2013-03-27 11:45:00,
2013-03-27 07:50:00,26.5,24.0,30.26,SW,217,3.0,21.0,90,0.00,,,0.00,Wunderground v.1.15,2013-03-27 11:50:00,
2013-03-27 07:55:00,26.5,24.2,30.26,SW,236,2.0,21.0,91,0.00,,,0.00,Wunderground v.1.15,2013-03-27 11:55:00,
2013-03-27 08:00:00,26.4,24.1,30.26,SW,215,2.0,21.0,91,0.00,,,0.00,Wunderground v.1.15,2013-03-27 12:00:00,
2013-03-27 08:10:00,26.5,24.0,30.26,WSW,247,4.0,4.0,90,0.00,,,0.00,Wunderground v.1.15,2013-03-27 12:10:00,
2013-03-27 08:15:00,26.6,23.8,30.27,SW,232,3.0,21.0,89,0.00,,,0.00,Wunderground v.1.15,2013-03-27 12:15:00,
2013-03-27 08:25:00,27.0,23.6,30.27,WSW,243,3.0,21.0,87,0.00,,,0.00,Wunderground v.1.15,2013-03-27 12:25:00,
2013-03-27 08:30:00,27.3,23.4,30.27,SW,236,4.0,21.0,85,0.00,,,0.00,Wunderground v.1.15,2013-03-27 12:30:00,
2013-03-27 08:35:00,27.6,23.7,30.27,WSW,239,4.0,21.0,85,0.00,,,0.00,Wunderground v.1.15,2013-03-27 12:35:00,
2013-03-27 08:40:00,28.2,23.7,30.28,WSW,250,4.0,21.0,83,0.00,,,0.00,Wunderground v.1.15,2013-03-27 12:40:00,
2013-03-27 08:45:00,28.6,23.8,30.27,West,260,4.0,21.0,82,0.00,,,0.00,Wunderground v.1.15,2013-03-27 12:45:00,
2013-03-27 08:50:00,29.0,23.9,30.28,WSW,239,4.0,4.0,81,0.00,,,0.00,Wunderground v.1.15,2013-03-27 12:50:00,
2013-03-27 08:55:00,29.3,23.3,30.27,SW,235,3.0,5.0,78,0.00,,,0.00,Wunderground v.1.15,2013-03-27 12:55:00,
2013-03-27 09:00:00,29.5,23.2,30.27,WSW,256,3.0,21.0,77,0.00,,,0.00,Wunderground v.1.15,2013-03-27 13:00:00,
2013-03-27 09:10:00,29.9,22.6,30.28,WSW,238,3.0,21.0,74,0.00,,,0.00,Wunderground v.1.15,2013-03-27 13:10:00,
2013-03-27 09:15:00,30.0,22.4,30.28,SW,219,3.0,21.0,73,0.00,,,0.00,Wunderground v.1.15,2013-03-27 13:15:00,
2013-03-27 09:20:00,30.3,23.0,30.28,SW,222,3.0,21.0,74,0.00,,,0.00,Wunderground v.1.15,2013-03-27 13:20:00,
2013-03-27 09:25:00,30.5,22.5,30.28,WSW,238,4.0,21.0,72,0.00,,,0.00,Wunderground v.1.15,2013-03-27 13:25:00,
2013-03-27 09:30:00,30.8,22.5,30.27,WSW,257,4.0,4.0,71,0.00,,,0.00,Wunderground v.1.15,2013-03-27 13:30:00,
2013-03-27 09:40:00,31.5,21.8,30.28,WSW,250,4.0,21.0,67,0.00,,,0.00,Wunderground v.1.15,2013-03-27 13:40:00,
2013-03-27 09:45:00,31.6,22.2,30.28,SSW,212,5.0,21.0,68,0.00,,,0.00,Wunderground v.1.15,2013-03-27 13:45:00,
2013-03-27 09:55:00,31.9,22.5,30.28,WSW,241,5.0,21.0,68,0.00,,,0.00,Wunderground v.1.15,2013-03-27 13:55:00,
2013-03-27 10:00:00,31.9,22.5,30.28,SW,233,5.0,5.0,68,0.00,,,0.00,Wunderground v.1.15,2013-03-27 14:00:00,
2013-03-27 10:10:00,31.7,23.0,30.28,SW,222,4.0,4.0,70,0.00,,,0.00,Wunderground v.1.15,2013-03-27 14:10:00,
2013-03-27 10:15:00,31.6,22.6,30.28,WSW,245,5.0,6.0,69,0.00,,,0.00,Wunderground v.1.15,2013-03-27 14:15:00,
2013-03-27 10:20:00,31.5,22.5,30.29,SW,224,4.0,4.0,69,0.00,,,0.00,Wunderground v.1.15,2013-03-27 14:20:00,
2013-03-27 10:25:00,32.2,23.2,30.29,WSW,252,5.0,5.0,69,0.00,,,0.00,Wunderground v.1.15,2013-03-27 14:25:00,
2013-03-27 10:30:00,32.0,22.6,30.29,SW,232,5.0,21.0,68,0.00,,,0.00,Wunderground v.1.15,2013-03-27 14:30:00,
2013-03-27 10:35:00,31.7,23.0,30.30,SW,226,5.0,21.0,70,0.00,,,0.00,Wunderground v.1.15,2013-03-27 14:35:00,
2013-03-27 10:40:00,31.5,22.5,30.30,South,185,4.0,21.0,69,0.00,,,0.00,Wunderground v.1.15,2013-03-27 14:40:00,
2013-03-27 10:45:00,31.1,22.5,30.29,SW,232,4.0,21.0,70,0.00,,,0.00,Wunderground v.1.15,2013-03-27 14:45:00,
2013-03-27 10:50:00,31.5,23.2,30.29,SW,217,5.0,5.0,71,0.00,,,0.00,Wunderground v.1.15,2013-03-27 14:50:00,
2013-03-27 10:55:00,32.5,24.5,30.29,WSW,239,4.0,8.0,72,0.00,,,0.00,Wunderground v.1.15,2013-03-27 14:55:00,
2013-03-27 11:05:00,31.7,24.4,30.29,SW,229,5.0,21.0,74,0.00,,,0.00,Wunderground v.1.15,2013-03-27 15:05:00,
2013-03-27 11:10:00,31.7,24.0,30.29,West,271,4.0,21.0,73,0.00,,,0.00,Wunderground v.1.15,2013-03-27 15:10:00,
2013-03-27 11:15:00,32.8,24.8,30.30,SW,224,5.0,21.0,72,0.00,,,0.00,Wunderground v.1.15,2013-03-27 15:15:00,
2013-03-27 11:20:00,32.5,23.8,30.30,ESE,122,5.0,5.0,70,0.00,,,0.00,Wunderground v.1.15,2013-03-27 15:20:00,
2013-03-27 11:25:00,31.7,24.0,30.30,SW,216,4.0,21.0,73,0.00,,,0.00,Wunderground v.1.15,2013-03-27 15:25:00,
2013-03-27 11:30:00,31.4,24.4,30.30,SW,236,5.0,21.0,75,0.00,,,0.00,Wunderground v.1.15,2013-03-27 15:30:00,
2013-03-27 11:35:00,31.1,24.1,30.30,SW,217,5.0,21.0,75,0.00,,,0.00,Wunderground v.1.15,2013-03-27 15:35:00,
2013-03-27 11:40:00,31.8,25.4,30.29,WSW,245,4.0,21.0,77,0.00,,,0.00,Wunderground v.1.15,2013-03-27 15:40:00,
2013-03-27 11:45:00,32.4,25.0,30.29,West,259,4.0,21.0,74,0.00,,,0.00,Wunderground v.1.15,2013-03-27 15:45:00,
2013-03-27 11:55:00,33.4,24.3,30.30,WSW,257,4.0,21.0,69,0.00,,,0.00,Wunderground v.1.15,2013-03-27 15:55:00,
2013-03-27 12:00:00,32.8,24.8,30.30,SW,219,4.0,21.0,72,0.00,,,0.00,Wunderground v.1.15,2013-03-27 16:00:00,
2013-03-27 12:05:00,32.5,24.8,30.30,SSW,212,4.0,21.0,73,0.00,,,0.00,Wunderground v.1.15,2013-03-27 16:05:00,
2013-03-27 12:10:00,32.8,24.8,30.30,WSW,256,4.0,21.0,72,0.00,,,0.00,Wunderground v.1.15,2013-03-27 16:10:00,
2013-03-27 12:15:00,32.8,25.1,30.30,SW,226,5.0,21.0,73,0.00,,,0.00,Wunderground v.1.15,2013-03-27 16:15:00,
2013-03-27 12:20:00,32.5,25.1,30.30,WSW,246,4.0,4.0,74,0.00,,,0.00,Wunderground v.1.15,2013-03-27 16:20:00,
2013-03-27 12:25:00,33.0,25.6,30.31,SW,224,5.0,5.0,74,0.00,,,0.00,Wunderground v.1.15,2013-03-27 16:25:00,
2013-03-27 12:30:00,33.4,25.0,30.30,SSW,212,5.0,5.0,71,0.00,,,0.00,Wunderground v.1.15,2013-03-27 16:30:00,
2013-03-27 12:35:00,33.4,24.7,30.31,WSW,255,4.0,6.0,70,0.00,,,0.00,Wunderground v.1.15,2013-03-27 16:35:00,
2013-03-27 12:40:00,34.1,24.6,30.31,SW,219,4.0,4.0,68,0.00,,,0.00,Wunderground v.1.15,2013-03-27 16:40:00,
2013-03-27 12:50:00,35.4,24.0,30.30,SW,224,4.0,21.0,63,0.00,,,0.00,Wunderground v.1.15,2013-03-27 16:50:00,
2013-03-27 12:55:00,35.6,23.1,30.30,SW,222,5.0,21.0,60,0.00,,,0.00,Wunderground v.1.15,2013-03-27 16:55:00,
2013-03-27 13:00:00,36.0,23.4,30.30,SW,215,5.0,5.0,60,0.00,,,0.00,Wunderground v.1.15,2013-03-27 17:00:00,
2013-03-27 13:05:00,36.4,23.4,30.30,SSW,195,5.0,21.0,59,0.00,,,0.00,Wunderground v.1.15,2013-03-27 17:05:00,
2013-03-27 13:10:00,36.7,24.1,30.30,West,269,5.0,21.0,60,0.00,,,0.00,Wunderground v.1.15,2013-03-27 17:10:00,
2013-03-27 13:15:00,36.6,24.4,30.30,WSW,238,5.0,21.0,61,0.00,,,0.00,Wunderground v.1.15,2013-03-27 17:15:00,
2013-03-27 13:25:00,37.0,23.6,30.30,SW,216,5.0,21.0,58,0.00,,,0.00,Wunderground v.1.15,2013-03-27 17:25:00,
2013-03-27 13:30:00,37.1,24.5,30.30,SW,217,5.0,5.0,60,0.00,,,0.00,Wunderground v.1.15,2013-03-27 17:30:00,
2013-03-27 13:35:00,37.5,24.9,30.30,WSW,252,4.0,21.0,60,0.00,,,0.00,Wunderground v.1.15,2013-03-27 17:35:00,
2013-03-27 13:40:00,37.7,23.4,30.30,SSW,200,4.0,4.0,56,0.00,,,0.00,Wunderground v.1.15,2013-03-27 17:40:00,
2013-03-27 13:50:00,37.9,23.2,30.29,SW,219,5.0,21.0,55,0.00,,,0.00,Wunderground v.1.15,2013-03-27 17:50:00,
2013-03-27 13:55:00,38.0,23.7,30.29,SW,222,4.0,21.0,56,0.00,,,0.00,Wunderground v.1.15,2013-03-27 17:55:00,
2013-03-27 14:05:00,38.4,24.1,30.29,WSW,239,4.0,21.0,56,0.00,,,0.00,Wunderground v.1.15,2013-03-27 18:05:00,
2013-03-27 14:15:00,38.2,23.4,30.29,SW,224,5.0,21.0,55,0.00,,,0.00,Wunderground v.1.15,2013-03-27 18:15:00,
2013-03-27 14:20:00,38.3,23.5,30.28,WSW,252,4.0,4.0,55,0.00,,,0.00,Wunderground v.1.15,2013-03-27 18:20:00,
2013-03-27 14:25:00,39.1,25.1,30.28,SSW,210,4.0,21.0,57,0.00,,,0.00,Wunderground v.1.15,2013-03-27 18:25:00,
2013-03-27 14:30:00,39.6,24.3,30.29,WSW,246,3.0,21.0,54,0.00,,,0.00,Wunderground v.1.15,2013-03-27 18:30:00,
2013-03-27 14:35:00,39.4,24.1,30.28,SE,141,3.0,21.0,54,0.00,,,0.00,Wunderground v.1.15,2013-03-27 18:35:00,
2013-03-27 14:40:00,40.0,25.1,30.28,WNW,302,3.0,3.0,55,0.00,,,0.00,Wunderground v.1.15,2013-03-27 18:40:00,
2013-03-27 14:45:00,40.0,24.7,30.28,SW,215,3.0,4.0,54,0.00,,,0.00,Wunderground v.1.15,2013-03-27 18:45:00,
2013-03-27 14:50:00,39.8,24.5,30.28,SE,145,4.0,4.0,54,0.00,,,0.00,Wunderground v.1.15,2013-03-27 18:50:00,
2013-03-27 14:55:00,39.7,24.0,30.28,SSW,208,5.0,5.0,53,0.00,,,0.00,Wunderground v.1.15,2013-03-27 18:55:00,
2013-03-27 15:00:00,39.7,24.0,30.28,West,270,4.0,4.0,53,0.00,,,0.00,Wunderground v.1.15,2013-03-27 19:00:00,
2013-03-27 15:05:00,39.7,24.0,30.27,SW,232,4.0,5.0,53,0.00,,,0.00,Wunderground v.1.15,2013-03-27 19:05:00,
2013-03-27 15:10:00,39.9,24.1,30.27,SSW,203,4.0,4.0,53,0.00,,,0.00,Wunderground v.1.15,2013-03-27 19:10:00,
2013-03-27 15:15:00,39.9,24.1,30.27,WSW,250,4.0,21.0,53,0.00,,,0.00,Wunderground v.1.15,2013-03-27 19:15:00,
2013-03-27 15:25:00,40.0,24.2,30.27,WSW,238,3.0,21.0,53,0.00,,,0.00,Wunderground v.1.15,2013-03-27 19:25:00,
2013-03-27 15:30:00,40.3,25.0,30.27,SSE,159,3.0,21.0,54,0.00,,,0.00,Wunderground v.1.15,2013-03-27 19:30:00,
2013-03-27 15:35:00,40.5,24.7,30.27,SW,233,4.0,21.0,53,0.00,,,0.00,Wunderground v.1.15,2013-03-27 19:35:00,
2013-03-27 15:45:00,40.0,24.2,30.27,SW,236,4.0,21.0,53,0.00,,,0.00,Wunderground v.1.15,2013-03-27 19:45:00,
2013-03-27 15:50:00,39.8,23.6,30.26,South,190,5.0,21.0,52,0.00,,,0.00,Wunderground v.1.15,2013-03-27 19:50:00,
2013-03-27 15:55:00,40.0,23.8,30.26,SW,222,5.0,21.0,52,0.00,,,0.00,Wunderground v.1.15,2013-03-27 19:55:00,
2013-03-27 16:00:00,40.2,24.0,30.27,SW,229,4.0,21.0,52,0.00,,,0.00,Wunderground v.1.15,2013-03-27 20:00:00,
2013-03-27 16:05:00,40.2,24.0,30.26,SSW,198,3.0,21.0,52,0.00,,,0.00,Wunderground v.1.15,2013-03-27 20:05:00,
2013-03-27 16:10:00,40.6,24.8,30.26,SSW,210,3.0,21.0,53,0.00,,,0.00,Wunderground v.1.15,2013-03-27 20:10:00,
2013-03-27 16:20:00,40.2,24.0,30.26,SSW,201,4.0,4.0,52,0.00,,,0.00,Wunderground v.1.15,2013-03-27 20:20:00,
2013-03-27 16:25:00,40.1,23.4,30.26,SW,226,4.0,5.0,51,0.00,,,0.00,Wunderground v.1.15,2013-03-27 20:25:00,
2013-03-27 16:30:00,39.7,23.0,30.25,SW,217,4.0,4.0,51,0.00,,,0.00,Wunderground v.1.15,2013-03-27 20:30:00,
2013-03-27 16:35:00,39.8,23.6,30.25,South,187,3.0,21.0,52,0.00,,,0.00,Wunderground v.1.15,2013-03-27 20:35:00,
2013-03-27 16:40:00,39.9,23.7,30.25,SW,229,2.0,21.0,52,0.00,,,0.00,Wunderground v.1.15,2013-03-27 20:40:00,
2013-03-27 16:45:00,40.0,23.8,30.25,SW,219,2.0,21.0,52,0.00,,,0.00,Wunderground v.1.15,2013-03-27 20:45:00,
2013-03-27 16:50:00,40.1,23.4,30.25,West,259,3.0,3.0,51,0.00,,,0.00,Wunderground v.1.15,2013-03-27 20:50:00,
2013-03-27 16:55:00,40.1,23.9,30.25,SE,134,3.0,21.0,52,0.00,,,0.00,Wunderground v.1.15,2013-03-27 20:55:00,
2013-03-27 17:00:00,40.1,23.9,30.25,WSW,242,2.0,21.0,52,0.00,,,0.00,Wunderground v.1.15,2013-03-27 21:00:00,
2013-03-27 17:05:00,40.1,23.9,30.25,SSE,150,2.0,21.0,52,0.00,,,0.00,Wunderground v.1.15,2013-03-27 21:05:00,
2013-03-27 17:10:00,39.9,23.7,30.24,SSW,207,2.0,21.0,52,0.00,,,0.00,Wunderground v.1.15,2013-03-27 21:10:00,
2013-03-27 17:15:00,39.7,23.5,30.25,WSW,238,3.0,21.0,52,0.00,,,0.00,Wunderground v.1.15,2013-03-27 21:15:00,
2013-03-27 17:20:00,39.6,23.9,30.25,SW,236,2.0,21.0,53,0.00,,,0.00,Wunderground v.1.15,2013-03-27 21:20:00,
2013-03-27 17:25:00,39.8,24.0,30.25,WSW,249,3.0,21.0,53,0.00,,,0.00,Wunderground v.1.15,2013-03-27 21:25:00,
2013-03-27 17:30:00,39.7,24.0,30.25,WSW,243,3.0,21.0,53,0.00,,,0.00,Wunderground v.1.15,2013-03-27 21:30:00,
2013-03-27 17:40:00,39.4,23.7,30.25,WSW,238,3.0,21.0,53,0.00,,,0.00,Wunderground v.1.15,2013-03-27 21:40:00,
2013-03-27 17:45:00,39.2,23.9,30.25,SW,215,3.0,21.0,54,0.00,,,0.00,Wunderground v.1.15,2013-03-27 21:45:00,
2013-03-27 17:50:00,39.1,23.8,30.26,WNW,288,3.0,21.0,54,0.00,,,0.00,Wunderground v.1.15,2013-03-27 21:50:00,
2013-03-27 17:55:00,38.8,24.0,30.26,WSW,243,3.0,21.0,55,0.00,,,0.00,Wunderground v.1.15,2013-03-27 21:55:00,
2013-03-27 18:00:00,38.7,23.9,30.27,SW,230,3.0,21.0,55,0.00,,,0.00,Wunderground v.1.15,2013-03-27 22:00:00,
2013-03-27 18:05:00,38.6,23.8,30.26,SW,224,3.0,21.0,55,0.00,,,0.00,Wunderground v.1.15,2013-03-27 22:05:00,
2013-03-27 18:10:00,38.4,24.1,30.26,SW,214,3.0,21.0,56,0.00,,,0.00,Wunderground v.1.15,2013-03-27 22:10:00,
2013-03-27 18:15:00,38.1,23.8,30.27,SSW,194,3.0,21.0,56,0.00,,,0.00,Wunderground v.1.15,2013-03-27 22:15:00,
2013-03-27 18:20:00,37.9,24.0,30.27,WSW,248,3.0,3.0,57,0.00,,,0.00,Wunderground v.1.15,2013-03-27 22:20:00,
2013-03-27 18:30:00,37.7,23.8,30.27,SW,219,2.0,21.0,57,0.00,,,0.00,Wunderground v.1.15,2013-03-27 22:30:00,
2013-03-27 18:40:00,37.4,24.0,30.28,WSW,243,2.0,21.0,58,0.00,,,0.00,Wunderground v.1.15,2013-03-27 22:40:00,
2013-03-27 18:45:00,37.2,23.8,30.28,WSW,241,2.0,21.0,58,0.00,,,0.00,Wunderground v.1.15,2013-03-27 22:45:00,
2013-03-27 18:50:00,36.9,23.9,30.28,SW,214,2.0,2.0,59,0.00,,,0.00,Wunderground v.1.15,2013-03-27 22:50:00,
2013-03-27 19:00:00,36.4,23.8,30.28,WSW,239,2.0,21.0,60,0.00,,,0.00,Wunderground v.1.15,2013-03-27 23:00:00,
2013-03-27 19:05:00,36.0,24.2,30.28,WSW,249,2.0,21.0,62,0.00,,,0.00,Wunderground v.1.15,2013-03-27 23:05:00,
2013-03-27 19:10:00,35.8,23.7,30.28,West,274,2.0,21.0,61,0.00,,,0.00,Wunderground v.1.15,2013-03-27 23:10:00,
2013-03-27 19:15:00,35.4,24.0,30.28,SW,219,2.0,21.0,63,0.00,,,0.00,Wunderground v.1.15,2013-03-27 23:15:00,
2013-03-27 19:25:00,34.7,23.8,30.28,WSW,255,2.0,21.0,64,0.00,,,0.00,Wunderground v.1.15,2013-03-27 23:25:00,
2013-03-27 19:30:00,34.4,23.8,30.28,WNW,288,2.0,2.0,65,0.00,,,0.00,Wunderground v.1.15,2013-03-27 23:30:00,
2013-03-27 19:35:00,34.1,23.9,30.28,WSW,247,2.0,21.0,66,0.00,,,0.00,Wunderground v.1.15,2013-03-27 23:35:00,
2013-03-27 19:40:00,33.8,24.0,30.28,West,277,2.0,21.0,67,0.00,,,0.00,Wunderground v.1.15,2013-03-27 23:40:00,
2013-03-27 19:45:00,33.6,23.8,30.28,WSW,257,2.0,21.0,67,0.00,,,0.00,Wunderground v.1.15,2013-03-27 23:45:00,
2013-03-27 19:50:00,33.3,23.5,30.28,West,267,1.0,21.0,67,0.00,,,0.00,Wunderground v.1.15,2013-03-27 23:50:00,
2013-03-27 20:00:00,32.9,23.5,30.28,WSW,241,1.0,21.0,68,0.00,,,0.00,Wunderground v.1.15,2013-03-28 00:00:00,
2013-03-27 20:05:00,32.7,23.3,30.28,West,264,1.0,21.0,68,0.00,,,0.00,Wunderground v.1.15,2013-03-28 00:05:00,
2013-03-27 20:15:00,32.3,23.3,30.28,West,265,1.0,21.0,69,0.00,,,0.00,Wunderground v.1.15,2013-03-28 00:15:00,
2013-03-27 20:25:00,32.0,23.0,30.28,West,267,1.0,21.0,69,0.00,,,0.00,Wunderground v.1.15,2013-03-28 00:25:00,
2013-03-27 20:30:00,31.8,23.1,30.29,West,267,0.0,21.0,70,0.00,,,0.00,Wunderground v.1.15,2013-03-28 00:30:00,
2013-03-27 20:35:00,31.6,22.9,30.29,West,267,0.0,21.0,70,0.00,,,0.00,Wunderground v.1.15,2013-03-28 00:35:00,
2013-03-27 20:40:00,31.3,22.6,30.29,West,268,0.0,21.0,70,0.00,,,0.00,Wunderground v.1.15,2013-03-28 00:40:00,
2013-03-27 20:45:00,31.1,22.8,30.29,West,279,0.0,21.0,71,0.00,,,0.00,Wunderground v.1.15,2013-03-28 00:45:00,
2013-03-27 20:50:00,31.0,22.4,30.28,West,278,0.0,21.0,70,0.00,,,0.00,Wunderground v.1.15,2013-03-28 00:50:00,
2013-03-27 20:55:00,30.9,22.6,30.29,West,278,0.0,21.0,71,0.00,,,0.00,Wunderground v.1.15,2013-03-28 00:55:00,
2013-03-27 21:00:00,30.7,22.7,30.29,West,278,0.0,21.0,72,0.00,,,0.00,Wunderground v.1.15,2013-03-28 01:00:00,
2013-03-27 21:05:00,30.5,22.5,30.29,West,279,0.0,21.0,72,0.00,,,0.00,Wunderground v.1.15,2013-03-28 01:05:00,
2013-03-27 21:10:00,30.4,22.8,30.29,West,279,0.0,21.0,73,0.00,,,0.00,Wunderground v.1.15,2013-03-28 01:10:00,
2013-03-27 21:15:00,30.3,22.7,30.29,West,278,0.0,21.0,73,0.00,,,0.00,Wunderground v.1.15,2013-03-28 01:15:00,
2013-03-27 21:20:00,30.2,22.9,30.29,West,262,0.0,21.0,74,0.00,,,0.00,Wunderground v.1.15,2013-03-28 01:20:00,
2013-03-27 21:25:00,30.1,22.8,30.29,West,264,1.0,21.0,74,0.00,,,0.00,Wunderground v.1.15,2013-03-28 01:25:00,
2013-03-27 21:30:00,30.1,22.8,30.29,West,267,1.0,21.0,74,0.00,,,0.00,Wunderground v.1.15,2013-03-28 01:30:00,
2013-03-27 21:40:00,30.1,22.5,30.29,West,278,1.0,21.0,73,0.00,,,0.00,Wunderground v.1.15,2013-03-28 01:40:00,
2013-03-27 21:45:00,30.1,22.5,30.29,West,278,1.0,21.0,73,0.00,,,0.00,Wunderground v.1.15,2013-03-28 01:45:00,
2013-03-27 21:55:00,30.0,22.7,30.30,West,266,1.0,21.0,74,0.00,,,0.00,Wunderground v.1.15,2013-03-28 01:55:00,
2013-03-27 22:00:00,30.0,22.7,30.30,West,276,1.0,21.0,74,0.00,,,0.00,Wunderground v.1.15,2013-03-28 02:00:00,
2013-03-27 22:05:00,30.0,23.0,30.30,West,273,1.0,21.0,75,0.00,,,0.00,Wunderground v.1.15,2013-03-28 02:05:00,
2013-03-27 22:10:00,29.9,22.9,30.29,West,273,1.0,21.0,75,0.00,,,0.00,Wunderground v.1.15,2013-03-28 02:10:00,
2013-03-27 22:15:00,30.0,22.7,30.29,West,263,2.0,21.0,74,0.00,,,0.00,Wunderground v.1.15,2013-03-28 02:15:00,
2013-03-27 22:20:00,29.9,22.6,30.29,West,273,2.0,21.0,74,0.00,,,0.00,Wunderground v.1.15,2013-03-28 02:20:00,
2013-03-27 22:30:00,29.9,22.9,30.29,West,260,2.0,21.0,75,0.00,,,0.00,Wunderground v.1.15,2013-03-28 02:30:00,
2013-03-27 22:35:00,29.8,22.8,30.29,West,263,2.0,21.0,75,0.00,,,0.00,Wunderground v.1.15,2013-03-28 02:35:00,
2013-03-27 22:45:00,29.9,22.9,30.29,West,270,2.0,21.0,75,0.00,,,0.00,Wunderground v.1.15,2013-03-28 02:45:00,
2013-03-27 22:50:00,29.8,22.8,30.29,WSW,256,2.0,21.0,75,0.00,,,0.00,Wunderground v.1.15,2013-03-28 02:50:00,
2013-03-27 22:55:00,29.8,22.8,30.29,West,263,2.0,21.0,75,0.00,,,0.00,Wunderground v.1.15,2013-03-28 02:55:00,
2013-03-27 23:00:00,29.7,22.7,30.29,West,266,2.0,2.0,75,0.00,,,0.00,Wunderground v.1.15,2013-03-28 03:00:00,
2013-03-27 23:05:00,29.7,22.7,30.30,West,277,2.0,21.0,75,0.00,,,0.00,Wunderground v.1.15,2013-03-28 03:05:00,
2013-03-27 23:15:00,29.5,22.9,30.30,WSW,256,2.0,21.0,76,0.00,,,0.00,Wunderground v.1.15,2013-03-28 03:15:00,
2013-03-27 23:20:00,29.5,22.9,30.30,West,259,2.0,21.0,76,0.00,,,0.00,Wunderground v.1.15,2013-03-28 03:20:00,
2013-03-27 23:25:00,29.5,22.9,30.30,West,264,3.0,21.0,76,0.00,,,0.00,Wunderground v.1.15,2013-03-28 03:25:00,
2013-03-27 23:30:00,29.4,22.8,30.30,WSW,255,3.0,21.0,76,0.00,,,0.00,Wunderground v.1.15,2013-03-28 03:30:00,
2013-03-27 23:35:00,29.3,22.7,30.30,WSW,256,3.0,21.0,76,0.00,,,0.00,Wunderground v.1.15,2013-03-28 03:35:00,
2013-03-27 23:45:00,29.2,22.6,30.30,WSW,256,3.0,21.0,76,0.00,,,0.00,Wunderground v.1.15,2013-03-28 03:45:00,
2013-03-27 23:50:00,29.1,22.2,30.30,West,259,3.0,21.0,75,0.00,,,0.00,Wunderground v.1.15,2013-03-28 03:50:00,
2013-03-27 23:55:00,29.0,22.4,30.29,WSW,257,3.0,21.0,76,0.00,,,0.00,Wunderground v.1.15,2013-03-28 03:55:00,